Weather History for Douglas, WY

Change the Weather History Date:

Friday, July 5, 2013

  Actual Average Record
Temperature  
Mean Temperature 76 °F 70 °F  
Max Temperature 92 °F 87 °F 98 °F (2014)
Min Temperature 60 °F 53 °F 45 °F (2010)
Degree Days  
Heating Degree Days 0 1  
Month to date heating degree days 0 5  
Since 1 June heating degree days 56 115  
Since 1 July heating degree days 0 5  
Cooling Degree Days 11 5  
Month to date cooling degree days 37 25  
Year to date cooling degree days 159 102  
Since 1 June cooling degree days 143 96  
Growing Degree Days 25 (Base 50)    
Moisture  
Dew Point 55 °F    
Average Humidity 58    
Maximum Humidity 90    
Minimum Humidity 26    
Precipitation  
Precipitation 0.17 in 0.05 in 0.49 in (2002)
Month to date precipitation 0.19 0.25  
Year to date precipitation 5.38 7.80  
Sea Level Pressure  
Sea Level Pressure 29.77 in    
Wind  
Wind Speed 7 mph (North)    
Max Wind Speed 60 mph    
Max Gust Speed 83 mph    
Visibility 9 miles    
Events Rain , Thunderstorm    
T = Trace of Precipitation, MM = Missing Value Source: NWS Daily Summary

Daily Weather History Graph

Daily Weather History Graph

Search for Another Location

Airport:

Trip Planner

Search our weather history database for the weather conditions in past years. The results will help you decide how hot, cold, wet, or windy it might be!

Date:

Astronomy

Jul. 05, 2013 Rise Set
Actual Time 5:29 AM MDT 8:42 PM MDT
Civil Twilight 4:54 AM MDT 9:17 PM MDT
Nautical Twilight 4:09 AM MDT 10:02 PM MDT
Astronomical Twilight 3:15 AM MDT 10:56 PM MDT
Moon 3:32 AM MDT (7/5) 6:38 PM MDT (7/5)
Length of Visible Light 16h 22m
Length of Day
15h 13m
Waning Crescent, 6% of the Moon is Illuminated
Jul 5
Waning Crescent
Jul 8
New
Jul 15
First Quarter
Jul 22
Full
Jul 29
Last Quarter

Hourly Weather History & Observations

Time (MDT) Temp. Heat Index Dew Point Humidity Pressure Visibility Wind Dir Wind Speed Gust Speed Precip Events Conditions
12:53 AM 64.9 °F - 57.9 °F 78% 29.83 in 10.0 mi NNE 9.2 mph - 0.00 in   Overcast
1:53 AM 64.0 °F - 57.0 °F 78% 29.81 in 10.0 mi NNE 3.5 mph - N/A   Scattered Clouds
2:53 AM 63.0 °F - 59.0 °F 87% 29.79 in 10.0 mi South 3.5 mph - N/A   Mostly Cloudy
3:53 AM 63.0 °F - 57.0 °F 81% 29.76 in 10.0 mi SE 4.6 mph - N/A   Overcast
4:53 AM 63.0 °F - 57.9 °F 84% 29.77 in 10.0 mi Calm Calm - N/A   Overcast
5:53 AM 61.0 °F - 57.9 °F 90% 29.76 in 10.0 mi SE 3.5 mph - N/A   Mostly Cloudy
6:53 AM 63.0 °F - 57.9 °F 84% 29.75 in 10.0 mi Calm Calm - N/A   Clear
7:53 AM 66.9 °F - 57.0 °F 70% 29.76 in 10.0 mi NW 3.5 mph - N/A   Clear
8:53 AM 71.1 °F - 57.0 °F 61% 29.75 in 10.0 mi Calm Calm - N/A   Clear
9:53 AM 75.0 °F - 55.0 °F 50% 29.72 in 10.0 mi Variable 3.5 mph - N/A   Clear
10:53 AM 81.0 °F 80.4 °F 53.1 °F 38% 29.71 in 10.0 mi WNW 9.2 mph - N/A   Clear
11:53 AM 82.0 °F 81.3 °F 54.0 °F 38% 29.71 in 10.0 mi Variable 6.9 mph - N/A   Clear
12:53 PM 87.1 °F 84.9 °F 53.1 °F 31% 29.69 in 10.0 mi NW 10.4 mph 20.7 mph N/A   Clear
1:53 PM 89.1 °F - 50.0 °F 26% 29.67 in 10.0 mi West 10.4 mph 19.6 mph N/A   Clear
2:53 PM 86.0 °F - 48.0 °F 27% 29.66 in 10.0 mi NW 5.8 mph - N/A   Clear
3:53 PM 84.9 °F - 48.9 °F 29% 29.68 in 10.0 mi NNW 21.9 mph 28.8 mph N/A   Mostly Cloudy
4:00 PM 82.4 °F - 48.2 °F 30% 29.87 in 10.0 mi North 20.7 mph 29.9 mph N/A   Scattered Clouds
4:13 PM 84.2 °F - 50.0 °F 30% 29.87 in 10.0 mi North 13.8 mph 25.3 mph N/A   Partly Cloudy
4:53 PM 84.9 °F - 48.0 °F 28% 29.67 in 10.0 mi Variable 6.9 mph - N/A   Clear
5:53 PM 86.0 °F - 48.9 °F 28% 29.66 in 10.0 mi East 6.9 mph - N/A   Partly Cloudy
6:53 PM 81.0 °F - 48.9 °F 33% 29.66 in 10.0 mi ESE 5.8 mph - N/A Thunderstorm Clear
7:14 PM 69.8 °F - 55.4 °F 60% 29.84 in 1.5 mi NW 56.4 mph 82.9 mph 0.04 in Rain , Thunderstorm Light Rain
7:21 PM 66.2 °F - 55.4 °F 68% 29.90 in 0.8 mi North 26.5 mph 82.9 mph 0.11 in Rain , Thunderstorm Light Thunderstorms and Rain
7:25 PM 64.4 °F - 55.4 °F 73% 29.90 in 1.8 mi North 20.7 mph 32.2 mph 0.14 in Rain , Thunderstorm Thunderstorms and Rain
7:27 PM 64.4 °F - 57.2 °F 77% 29.90 in 3.0 mi North 16.1 mph 32.2 mph 0.14 in Rain , Thunderstorm Thunderstorms and Rain
7:48 PM 66.2 °F - 59.0 °F 78% 29.88 in 10.0 mi East 12.7 mph - 0.15 in Rain Light Rain
7:53 PM 66.0 °F - 57.0 °F 73% 29.72 in 10.0 mi SE 12.7 mph - 0.15 in   Mostly Cloudy
8:00 PM 66.2 °F - 59.0 °F 78% 29.89 in 10.0 mi SSE 11.5 mph 20.7 mph N/A   Scattered Clouds
8:53 PM 68.0 °F - 57.0 °F 68% 29.74 in 10.0 mi SSE 8.1 mph - N/A   Mostly Cloudy
9:53 PM 64.9 °F - 59.0 °F 81% 29.77 in 10.0 mi North 5.8 mph - N/A   Clear
10:53 PM 62.1 °F - 57.9 °F 86% 29.74 in 10.0 mi Calm Calm - N/A   Clear
11:53 PM 63.0 °F - 59.0 °F 87% 29.76 in 10.0 mi NW 19.6 mph 28.8 mph N/A   Partly Cloudy